Weather in Kletsk

Belarus     53°03′57″N   26°38′00″E
temp.,
°C
wind,
m/s
gust,
m/s
humid.,
%
clouds,
%
prec.,
mm/h
press.,
hPa
HPBL,
m
18 may, tue
tue1800:00+13nne2396100 0.0 100275
03:00+12nne2297100 1.2 100262
06:00+12nnw239799 0.1 1001116
09:00+13wnw119479 0.2 1001128
12:00+16nw228199 0.1 1001698
15:00+17n3380100 0.7 1001745
18:00+16n5583100 0.4 1001593
21:00+12nnw61094100 0.8 1001332
19 may, wed
wed1900:00+10nnw51095100 0.4 1001344
03:00+10nw5996100 2.4 1001397
06:00+9nw51097100 4.4 1001476
09:00+10nw51096100 9.1 1002578
12:00+9nw61195100 7.1 1004576
15:00+10nw61395100 12.9 1005835
18:00+10nnw61394100 2.0 1007579
21:00+9nw4795100 2.1 1008266
20 may, thu
thu2000:00+8nw369564 0.0 1008137
03:00+9nw3792100 0.0 1008193
06:00+8nw4897100 0.0 1009211
09:00+11nnw6888100 0.0 1009532
12:00+14nnw7970100 0.1 10091246
15:00+15nw6765100 0.3 10101359
18:00+14nw477579 0.4 1010888
21:00+11nw498510 0.4 1011167
21 may, fri
fri2100:00+8nw41290100 0.0 1014300
03:00+7nw41092100 0.0 1014227
06:00+6nw3893100 0.0 1016194
09:00+10nw457116 0.0 1017466
12:00+14wnw56574 0.0 10171059
15:00+15nw45544 0.0 10161396
18:00+15nw34575 0.0 10161545
21:00+11nne007167 0.0 101710
22 may, sat
sat2200:00+8sse227720 0.0 101714
03:00+7s338399 0.0 101630
06:00+7sse368442 0.0 1016111
09:00+12sse5878100 0.0 1015329
12:00+16s5760100 0.0 10151196
15:00+18s68555 0.0 10131793
18:00+18sse6962100 0.0 1012903
21:00+13sse4981100 0.0 1011164